Temperature
17 17 17 17 17 17 17 17 17 17 17 17 17 17 17 17 17 17 17 17 17 17 17 17 17 17 17 17 17 18 18 18 18 18 18 18 18 18 18 18 18 18 18
17 17 17 17 17 17 17 17 17 17 17 17 17 17 17 17 17 17 17 17 17 17 17 17 17 17 17 17 17 17 17 18 18 18 18 18 18 18 18 18 18 18 18
17 17 17 17 17 17 17 17 17 17 17 17 17 17 17 17 17 17 17 17 17 17 17 17 17 17 17 17 17 17 17 17 17 17 18 18 18 18 18 18 18 18 18
17 17 17 17 17 17 17 17 17 17 17 16 16 16 17 17 17 17 17 17 17 17 17 17 17 17 17 17 17 17 17 17 17 17 17 17 18 18 18 18 18 18 18
17 17 17 17 17 17 17 17 17 17 16 16 16 16 16 16 16 16 16 17 17 17 17 17 17 17 17 17 17 17 17 17 17 17 17 17 17 17 17 17 18 18 18
17 17 17 17 17 17 17 16 16 16 16 16 16 16 16 16 16 16 16 16 16 17 17 16 16 16 17 16 17 17 17 17 17 17 17 17 17 17 17 17 17 17 17
17 17 17 17 17 17 16 16 16 16 16 16 16 16 16 16 16 16 16 16 16 16 16 16 16 16 16 16 16 16 17 17 17 17 17 17 17 17 17 17 17 17 17
17 17 16 16 16 16 16 16 16 16 16 16 16 16 16 16 16 16 16 16 16 16 16 16 16 16 16 16 16 16 16 16 17 17 17 17 17 17 17 17 17 17 17
16 16 16 16 16 16 16 16 16 16 16 16 16 16 16 16 16 16 16 16 16 16 16 16 16 16 16 16 16 16 16 16 16 16 16 16 16 16 17 17 17 17 17
16 16 16 16 16 16 16 16 16 16 16 16 16 16 16 16 16 16 15 15 16 16 16 16 16 16 16 16 16 16 16 16 16 16 16 16 16 16 16 16 16 16 16
16 16 16 16 16 16 16 16 16 16 16 16 16 16 16 16 16 15 15 15 15 16 16 16 16 16 16 16 16 16 16 16 16 16 16 16 16 16 16 16 16 16 16
16 16 16 16 16 16 16 16 16 16 16 16 16 16 16 16 16 15 15 15 15 15 15 15 15 16 16 16 16 16 16 16 16 16 16 16 16 16 16 16 16 16 16
16 16 16 16 16 16 16 16 16 16 16 16 16 16 15 15 15 15 15 15 15 15 15 15 15 15 15 15 15 15 15 15 16 16 16 16 16 16 16 16 16 16 16
16 16 16 16 16 16 16 16 16 16 16 16 16 15 15 15 15 15 15 15 15 15 15 15 15 15 15 15 15 15 15 15 15 15 15 16 15 15 16 16 16 16 16
16 16 16 16 16 16 16 16 16 16 16 16 15 15 15 15 15 15 15 15 15 15 15 15 15 15 15 15 15 15 15 15 15 15 15 15 15 15 15 16 16 16 16
16 16 16 16 16 16 16 16 16 16 15 15 15 15 15 15 15 15 15 15 15 15 15 15 15 15 15 15 15 15 15 15 15 15 15 15 15 15 15 15 15 16 16
16 16 16 16 16 16 16 16 16 15 15 15 15 15 15 15 15 15 15 15 15 15 15 15 15 15 15 15 15 15 15 15 15 15 15 15 15 15 15 15 15 15 15
16 16 16 16 16 16 16 16 15 15 15 15 15 15 15 15 15 15 15 15 15 15 15 15 15 15 15 15 15 15 15 15 15 15 15 15 15 15 15 15 15 15 15
16 16 16 16 16 16 15 15 15 15 15 15 15 15 15 15 15 15 15 15 15 15 15 15 15 15 15 15 14 14 14 14 14 14 15 15 15 15 15 15 15 15 15
16 16 16 16 15 15 15 15 15 15 15 15 15 15 15 15 15 15 15 15 15 15 15 15 15 15 15 14 14 14 14 14 14 14 14 14 14 14 15 15 15 15 15
16 16 16 16 15 15 15 15 15 15 15 15 15 15 15 15 15 15 15 15 15 15 15 15 15 15 15 14 14 14 14 14 14 14 14 14 14 14 14 14 14 15 15
16 16 16 16 15 15 15 15 15 15 15 15 15 15 15 15 15 15 15 15 15 15 15 15 15 15 14 14 14 14 14 14 14 14 14 14 14 14 14 14 14 14 14
16 16 16 16 16 15 15 15 15 15 15 15 15 15 15 15 15 15 15 15 15 15 15 15 15 15 15 15 15 15 15 14 14 14 14 14 14 14 14 14 14 14 14
16 16 16 16 16 16 15 15 15 15 15 15 15 15 15 15 15 15 15 15 15 15 15 15 15 15 15 15 15 15 15 14 14 14 14 14 14 14 14 13 13 14 14
16 16 16 16 16 16 16 15 15 15 15 15 15 15 15 15 15 15 15 15 15 15 15 15 15 15 15 15 15 15 14 14 14 14 14 14 13 13 13 13 13 13 13
17 16 16 16 16 16 16 15 15 15 15 15 15 15 15 15 15 15 15 15 15 15 15 15 15 15 15 15 15 15 14 15 15 14 14 14 13 13 13 13 13 13 13
Wind_Speed
1 2 1 4 6 7 7 8 9 9 9 9 10 10 10 10 10 10 10 10 10 10 9 10 10 10 9 9 9 9 9 9 9 9 8 8 8 7 7 7 6 6 7
1 0 3 4 5 6 7 8 9 9 9 9 9 9 9 9 9 10 10 10 10 10 10 10 10 10 10 10 9 9 10 10 10 9 9 8 7 7 6 6 6 6 7
1 2 3 5 5 6 7 8 8 9 9 9 9 9 9 9 9 9 9 9 9 9 9 9 9 10 10 10 10 10 10 10 10 10 9 8 6 6 6 6 6 6 6
2 2 3 5 5 6 7 8 8 9 8 8 8 8 9 8 8 8 9 9 9 9 9 9 9 9 10 10 10 10 10 9 10 9 8 7 6 6 6 6 6 6 6
3 3 3 5 6 6 7 8 8 7 7 7 8 8 8 8 8 8 9 8 8 8 9 9 9 9 9 10 10 9 9 9 9 9 8 7 6 6 7 7 6 6 6
3 3 3 5 5 6 6 7 7 7 7 8 8 8 7 8 8 8 9 8 8 9 9 9 9 9 9 10 9 9 9 9 9 8 8 7 6 7 8 7 7 6 6
2 2 3 5 5 5 5 6 7 7 7 7 7 7 7 7 8 7 8 8 8 9 9 9 9 9 9 9 9 9 9 9 8 7 6 6 6 8 8 8 8 7 7
2 2 2 4 4 4 5 6 7 7 7 7 7 7 7 7 7 8 8 8 8 8 9 9 9 9 9 9 9 9 9 8 7 7 6 5 6 7 7 7 7 7 6
3 3 4 4 4 3 4 5 6 6 6 7 7 7 7 7 8 8 8 8 7 7 8 9 9 9 10 9 9 9 9 9 8 6 6 5 6 7 7 7 7 7 7
3 3 4 4 5 5 5 5 6 6 7 7 7 7 7 8 8 8 7 8 8 8 8 9 9 10 10 11 10 10 10 9 8 7 6 5 6 7 8 8 8 8 8
2 3 3 3 4 5 4 5 6 7 7 8 7 7 7 7 6 6 7 8 8 8 9 9 9 10 10 11 11 11 10 8 8 7 6 7 7 8 9 9 9 9 8
0 1 1 2 3 4 4 5 6 6 7 7 6 7 7 6 6 6 8 9 9 9 9 10 10 10 9 9 10 10 8 8 8 7 7 9 9 9 9 9 9 9 9
1 1 0 1 1 2 3 4 4 5 5 6 6 6 7 6 6 7 8 8 9 9 8 9 9 8 8 8 7 8 8 8 7 7 9 10 9 9 9 8 8 8 8
2 2 1 1 1 2 3 3 3 3 3 4 4 5 5 4 4 5 5 6 6 6 7 7 7 8 8 8 8 8 8 8 8 8 9 11 10 10 9 9 9 8 8
2 2 1 2 2 2 2 2 2 2 2 3 3 4 4 3 2 3 4 5 5 6 5 5 6 7 7 7 8 8 7 8 9 9 9 12 12 11 11 11 9 9 9
3 2 2 2 2 3 2 2 2 2 3 4 4 3 4 3 3 3 3 3 4 5 5 6 6 6 5 6 7 8 8 8 9 10 10 11 12 12 12 11 10 9 9
3 3 2 3 3 3 2 2 2 3 4 3 3 4 4 4 4 4 3 2 3 5 6 6 7 6 5 6 6 7 7 8 8 9 10 10 10 11 12 12 12 10 10
4 3 2 3 4 3 3 2 2 3 4 3 3 4 4 4 5 5 3 3 4 6 5 4 4 5 5 5 5 5 6 7 8 9 9 10 10 10 11 13 13 12 12
5 4 3 3 3 3 3 3 3 4 4 4 4 4 4 4 6 6 4 4 5 5 4 4 4 4 4 5 5 5 5 5 6 8 8 9 10 10 10 11 13 14 13
5 4 4 3 3 3 3 3 3 4 4 4 4 4 5 5 6 6 5 5 5 4 4 4 4 4 4 3 5 6 5 5 6 7 7 8 9 10 11 10 11 11 13
4 4 3 3 2 3 2 2 2 1 2 2 3 5 5 5 5 6 4 4 4 4 4 4 4 5 4 2 4 4 4 5 6 6 6 7 8 9 10 11 10 10 10
5 4 4 3 3 2 2 2 2 2 1 1 2 4 5 5 5 5 5 3 3 4 4 4 3 3 2 3 2 3 3 4 4 5 5 5 6 7 8 9 10 10 10
6 6 5 4 3 3 3 3 3 3 3 3 3 2 3 4 5 5 5 4 3 3 3 3 3 3 2 2 2 3 3 1 1 3 4 5 6 6 6 8 9 10 10
6 5 5 5 4 3 4 4 4 3 1 0 0 1 2 4 5 5 5 5 4 3 3 2 2 2 3 2 2 3 2 3 3 1 3 4 5 6 6 6 8 9 10
6 5 5 5 4 4 4 5 5 3 2 1 1 2 3 3 4 4 4 4 4 3 3 3 3 3 2 2 2 2 3 3 3 3 1 3 4 4 4 5 6 7 9
5 5 4 5 4 4 5 5 5 5 3 3 2 2 1 2 2 3 3 4 3 3 3 3 3 3 3 3 2 2 2 2 2 3 2 1 1 2 3 4 5 6 7
Wind_Direction
295 291 77 87 93 93 91 86 85 84 85 85 85 86 87 87 86 87 88 86 83 78 81 74 73 76 77 76 77 76 73 72 70 74 79 83 84 85 87 87 87 85 96
211 305 100 95 93 94 94 89 87 84 83 85 84 86 88 88 88 88 89 87 84 80 78 74 72 73 74 76 77 78 74 72 69 70 67 65 74 79 82 87 93 94 98
110 81 102 98 94 93 96 92 88 86 84 84 83 84 87 87 89 89 88 86 84 83 79 75 72 73 72 73 74 77 73 71 69 65 58 51 59 75 78 81 89 95 97
118 89 95 99 93 89 90 91 87 85 83 83 84 84 85 84 86 90 89 85 83 82 81 75 72 72 73 73 73 73 69 67 65 62 52 46 49 67 75 77 85 93 97
91 84 99 97 93 92 90 92 87 85 82 80 81 84 82 83 84 87 86 84 83 81 78 75 73 72 73 72 69 68 67 63 63 57 48 41 42 63 76 77 79 89 99
79 85 102 100 95 94 92 93 89 86 84 82 81 82 82 82 85 86 85 81 81 78 76 75 73 75 76 71 71 71 69 66 62 53 46 43 45 66 75 77 79 85 92
76 77 107 107 103 98 93 95 89 86 84 81 80 81 82 80 81 85 82 79 78 74 74 74 73 77 77 75 76 75 71 67 60 52 45 44 53 65 72 76 79 82 84
88 67 73 94 102 101 95 94 90 83 76 70 73 75 76 77 75 77 76 74 74 74 73 72 73 76 74 72 76 76 70 65 57 49 43 46 58 67 69 72 75 77 80
70 60 43 44 61 85 86 89 85 81 73 66 66 67 71 70 70 72 72 74 73 73 73 73 74 75 73 72 75 78 74 66 53 40 41 46 60 68 70 72 72 75 76
58 46 37 37 47 52 57 74 73 70 67 63 60 63 64 62 63 65 67 74 72 71 71 71 74 75 73 72 73 75 71 60 49 41 35 48 61 66 69 70 70 72 73
55 33 31 32 41 45 43 58 56 55 53 51 49 57 55 49 53 55 64 72 73 72 72 71 71 70 69 69 69 69 63 52 48 40 38 54 62 67 66 66 67 69 71
326 334 27 30 30 33 43 49 50 52 48 47 45 49 48 47 48 56 58 62 64 64 68 69 67 66 65 63 61 61 55 49 45 40 45 54 60 63 63 62 63 63 63
221 248 100 42 29 35 35 47 44 45 46 44 47 52 52 51 50 53 54 48 51 56 57 60 61 62 68 69 63 57 52 51 44 40 46 53 58 60 61 60 62 64 62
178 207 165 104 67 53 54 47 46 43 41 38 43 55 65 58 50 51 56 49 52 58 60 62 67 67 69 72 69 65 57 52 44 41 47 52 55 57 58 58 59 61 64
168 168 151 115 106 87 68 48 58 46 48 50 55 63 82 85 69 63 62 63 67 69 70 67 69 68 65 67 69 67 59 53 49 47 44 52 54 53 54 54 53 54 59
168 155 141 129 114 96 77 60 42 48 61 61 57 61 83 98 96 86 72 67 71 75 77 80 79 74 66 66 62 61 57 53 52 50 45 43 44 47 51 51 50 51 57
172 154 150 143 106 95 86 64 56 55 70 65 54 61 80 94 103 102 93 77 82 89 85 82 75 72 68 65 57 52 52 50 52 49 48 42 37 37 42 44 44 50 57
153 150 141 134 114 99 80 68 63 62 70 60 54 63 72 86 104 104 95 82 93 96 91 83 71 72 66 65 60 47 45 47 48 50 49 44 42 37 34 40 43 49 57
154 145 128 113 114 106 87 77 74 71 65 56 54 59 66 82 102 105 98 93 98 92 84 91 77 84 82 74 73 57 44 42 40 48 46 43 43 42 39 37 39 44 50
145 137 127 122 117 107 87 73 61 54 45 48 47 54 69 84 97 102 100 94 97 91 80 83 88 76 80 81 79 63 48 44 47 46 42 42 42 43 43 43 40 38 43
145 143 144 148 147 118 100 92 81 59 30 30 36 51 65 80 95 99 97 90 89 93 100 100 94 82 65 66 77 55 36 41 49 42 39 40 34 35 42 44 43 41 39
161 165 163 173 171 159 138 127 120 113 71 30 26 48 57 71 88 104 102 97 95 98 92 87 95 94 63 45 99 93 44 19 21 31 34 38 29 30 35 37 41 44 43
176 185 183 185 177 168 139 108 82 60 45 31 26 28 27 63 81 95 107 107 99 102 108 101 104 114 115 47 59 125 127 173 349 6 28 35 31 32 27 31 37 41 41
191 185 184 183 177 170 151 138 133 130 130 201 23 39 31 55 73 86 99 104 99 93 103 107 96 106 121 105 58 56 96 141 131 61 6 19 31 37 30 31 31 35 37
184 181 182 175 174 168 162 156 143 134 136 102 81 73 53 45 59 80 96 100 95 92 97 92 90 92 101 121 118 101 80 66 78 120 85 0 18 24 29 27 27 29 31
179 179 174 173 179 170 167 160 158 155 147 128 117 104 71 49 40 62 90 95 98 96 98 99 98 96 93 96 99 106 128 125 124 120 126 85 29 358 18 24 25 19 23
Height
1524 1524 1524 1524 1524 1524 1524 1524 1524 1524 1524 1524 1523 1523 1523 1523 1524 1524 1524 1524 1524 1524 1525 1525 1526 1527 1527 1527 1528 1528 1528 1528 1529 1529 1529 1530 1530 1531 1531 1532 1532 1532 1533
1525 1525 1525 1525 1525 1525 1525 1525 1525 1525 1525 1525 1524 1524 1524 1524 1525 1525 1525 1525 1526 1526 1526 1527 1527 1528 1528 1528 1529 1529 1529 1529 1530 1530 1530 1531 1531 1531 1532 1532 1533 1533 1533
1525 1526 1526 1526 1526 1526 1526 1526 1526 1526 1526 1526 1526 1525 1525 1525 1526 1526 1526 1527 1527 1527 1527 1528 1528 1529 1529 1529 1530 1530 1530 1531 1531 1531 1531 1531 1532 1532 1532 1533 1533 1533 1534
1526 1527 1527 1527 1527 1527 1527 1527 1527 1527 1527 1527 1527 1527 1527 1527 1527 1527 1528 1528 1528 1528 1529 1529 1530 1530 1530 1531 1531 1531 1532 1532 1532 1532 1532 1532 1532 1533 1533 1533 1533 1534 1534
1527 1528 1528 1528 1528 1528 1528 1528 1528 1528 1528 1528 1528 1528 1528 1528 1528 1529 1529 1529 1529 1530 1530 1531 1531 1531 1531 1532 1532 1533 1533 1533 1533 1533 1533 1533 1533 1533 1533 1534 1534 1534 1535
1528 1529 1529 1529 1529 1529 1530 1530 1530 1530 1530 1530 1530 1529 1529 1530 1530 1530 1530 1530 1531 1531 1531 1532 1532 1532 1532 1533 1533 1534 1534 1534 1534 1534 1534 1534 1533 1533 1534 1534 1535 1535 1535
1529 1530 1530 1530 1530 1531 1531 1531 1531 1531 1531 1531 1531 1531 1531 1531 1531 1531 1532 1532 1532 1532 1532 1533 1533 1533 1534 1534 1534 1535 1535 1535 1535 1535 1535 1535 1535 1534 1535 1535 1536 1536 1536
1531 1531 1531 1531 1532 1532 1532 1533 1533 1533 1533 1533 1533 1532 1533 1533 1533 1533 1533 1533 1533 1533 1534 1534 1534 1535 1535 1535 1535 1536 1536 1536 1536 1536 1536 1536 1536 1536 1536 1536 1536 1537 1537
1532 1532 1533 1533 1533 1534 1534 1534 1534 1534 1534 1534 1534 1534 1534 1534 1534 1534 1534 1534 1535 1535 1535 1535 1535 1535 1536 1536 1536 1537 1537 1537 1537 1537 1537 1537 1537 1537 1537 1537 1537 1538 1538
1534 1534 1534 1535 1535 1535 1535 1536 1536 1536 1536 1536 1536 1536 1536 1536 1536 1536 1535 1536 1536 1536 1536 1536 1536 1536 1537 1537 1537 1537 1537 1537 1537 1538 1538 1538 1538 1538 1538 1538 1538 1538 1538
1535 1535 1536 1536 1536 1537 1537 1537 1538 1538 1538 1538 1538 1538 1538 1537 1537 1537 1537 1537 1537 1537 1538 1538 1538 1538 1538 1538 1538 1538 1538 1538 1538 1539 1539 1539 1539 1539 1539 1539 1539 1539 1539
1536 1537 1537 1538 1538 1539 1539 1539 1540 1540 1540 1540 1540 1539 1539 1539 1539 1539 1539 1539 1539 1539 1539 1539 1539 1539 1539 1540 1540 1540 1540 1540 1540 1540 1540 1540 1540 1540 1539 1539 1539 1539 1539
1537 1538 1539 1539 1540 1540 1541 1541 1541 1541 1542 1542 1541 1541 1541 1541 1541 1540 1540 1540 1540 1540 1540 1541 1541 1541 1541 1541 1541 1541 1541 1541 1541 1541 1541 1541 1541 1540 1540 1540 1539 1539 1539
1538 1539 1540 1540 1541 1542 1542 1543 1543 1543 1543 1543 1543 1543 1543 1542 1542 1542 1542 1542 1542 1542 1542 1542 1542 1542 1542 1543 1543 1543 1543 1543 1542 1542 1542 1542 1541 1541 1541 1540 1540 1539 1539
1538 1539 1540 1541 1542 1543 1543 1544 1544 1544 1544 1545 1545 1544 1544 1544 1544 1544 1544 1544 1544 1544 1544 1544 1544 1544 1544 1544 1544 1544 1544 1544 1544 1543 1543 1543 1542 1542 1541 1541 1540 1539 1539
1539 1540 1541 1542 1543 1544 1545 1545 1545 1546 1546 1546 1546 1546 1545 1545 1545 1545 1545 1545 1545 1545 1546 1546 1546 1546 1546 1546 1546 1546 1546 1546 1545 1545 1544 1544 1543 1543 1542 1541 1540 1538 1538
1539 1540 1542 1543 1544 1545 1546 1546 1546 1547 1547 1547 1547 1547 1547 1547 1547 1546 1546 1546 1547 1547 1547 1547 1547 1547 1547 1547 1547 1547 1547 1547 1547 1546 1546 1545 1545 1544 1543 1542 1539 1537 1537
1539 1540 1542 1543 1544 1545 1546 1547 1547 1547 1547 1548 1548 1548 1548 1548 1548 1548 1548 1548 1548 1548 1548 1548 1549 1549 1549 1549 1549 1549 1549 1549 1548 1548 1548 1547 1546 1545 1544 1543 1540 1538 1538
1539 1540 1542 1543 1545 1546 1547 1547 1548 1548 1548 1549 1549 1549 1549 1549 1549 1549 1549 1549 1549 1549 1549 1550 1550 1550 1550 1550 1550 1550 1550 1550 1550 1550 1549 1548 1548 1547 1546 1545 1543 1542 1542
1539 1541 1543 1544 1545 1546 1547 1548 1548 1549 1549 1549 1550 1550 1550 1550 1550 1550 1550 1550 1550 1550 1551 1551 1551 1551 1551 1552 1552 1552 1552 1552 1552 1551 1551 1550 1549 1548 1547 1546 1545 1545 1544
1540 1541 1543 1544 1545 1546 1547 1548 1549 1549 1550 1550 1550 1550 1550 1551 1551 1551 1551 1551 1551 1551 1552 1552 1552 1552 1552 1552 1553 1553 1554 1553 1553 1553 1552 1552 1551 1550 1549 1548 1547 1547 1546
1540 1541 1543 1545 1546 1547 1548 1548 1549 1550 1550 1551 1551 1551 1551 1551 1552 1552 1552 1552 1552 1552 1553 1553 1553 1553 1553 1553 1554 1554 1554 1556 1555 1554 1554 1553 1552 1551 1551 1549 1549 1548 1548
1539 1541 1543 1544 1546 1547 1548 1549 1549 1550 1551 1551 1551 1551 1552 1552 1552 1552 1553 1553 1553 1553 1553 1554 1554 1554 1554 1554 1554 1555 1554 1555 1556 1556 1555 1555 1554 1553 1552 1551 1550 1550 1550
1538 1540 1542 1544 1545 1547 1548 1549 1549 1550 1551 1551 1551 1552 1552 1553 1553 1553 1553 1554 1554 1554 1554 1554 1554 1555 1555 1555 1555 1555 1555 1555 1555 1556 1557 1556 1555 1555 1554 1553 1552 1552 1552
1537 1540 1542 1544 1545 1546 1547 1548 1549 1550 1551 1551 1552 1552 1553 1553 1553 1554 1554 1554 1555 1555 1555 1555 1555 1555 1555 1555 1555 1555 1555 1555 1556 1556 1557 1557 1557 1556 1555 1555 1555 1554 1554
1537 1539 1541 1542 1544 1546 1547 1548 1549 1550 1551 1551 1552 1552 1553 1553 1554 1554 1554 1555 1555 1555 1555 1556 1556 1556 1556 1556 1556 1556 1556 1556 1556 1556 1556 1557 1557 1557 1557 1557 1556 1556 1555